Regional Weather Roundup
Issued by NWS Albany, NY

Home | Current Version | Previous Version | Text Only | Print | Product List | Glossary On
Versions: 1 2 3 4 5 6 7 8 9 10 11 12 13 14 15 16 17 18 19 20 21 22 23 24 25 26 27 28 29 30 31 32 33 34 35 36 37 38 39 40 41 42 43 44 45 46 47 48 49 50
000
ASUS41 KALY 290810
RWRALY

NEW YORK STATE HOURLY WEATHER ROUNDUP
NATIONAL WEATHER SERVICE ALBANY NY
400 AM EDT FRI MAY 29 2015

NOTE: "FAIR" INDICATES FEW OR NO CLOUDS BELOW 12,000 FEET WITH NO
SIGNIFICANT WEATHER AND/OR NO OBSTRUCTIONS TO VISIBILITY.

NYZ032-033-038>043-046>054-057>066-NYZ062>081-290900-
EAST


CITY           SKY/WX    TMP DP  RH WIND       PRES   REMARKS
ALBANY         CLEAR     58  53  84 N3        30.28S
GLENS FALLS    CLEAR     55  53  93 CALM      30.28S
POUGHKEEPSIE   CLEAR     55  52  89 CALM      30.28R
MONTGOMERY     CLEAR     51  50  96 CALM      30.28R
WHITE PLAINS   CLEAR     60  53  77 NW6       30.26R
ISLIP          CLEAR     61  54  77 N6        30.23S
NEW YORK CITY  CLEAR     67  53  61 NE5       30.25S
CENTRAL PARK   CLEAR     67  53  61 N7        30.28S
$$

NYZ005>009-017-018-044>046-055-056-290900-
CENTRAL


CITY           SKY/WX    TMP DP  RH WIND       PRES   REMARKS
FULTON         CLEAR     53  50  89 CALM      30.28S
SYRACUSE       CLEAR     53  52  96 E7        30.28R
ROME           CLEAR     51  50  96 E7        30.31R
ELMIRA         CLEAR     50  49  96 SW3       30.29S
BINGHAMTON     CLEAR     57  52  83 NE3       30.30S
MONTICELLO     CLEAR     52  50  93 CALM      30.31S
$$

NYZ026>034-041>043-290900-
NORTH


CITY           SKY/WX    TMP DP  RH WIND       PRES   REMARKS
WATERTOWN      CLEAR     48  47  96 E3        30.27S
FORT DRUM      NOT AVBL
MASSENA        FOG       47  45  93 CALM      30.30R VSB 3/4
SARANAC LAKE   FOG       43  43 100 CALM      30.29S VSB 3/4
PLATTSBURGH    CLEAR     55  54  96 W5        30.28F
$$

NYZ001>004-010>016-019>021-290900-
WEST


CITY           SKY/WX    TMP DP  RH WIND       PRES   REMARKS
NIAGARA FALLS  CLEAR     55  51  86 E3        30.24S
BUFFALO        CLEAR     59  52  77 SE7       30.25R
DUNKIRK        CLEAR     62  53  72 SE7       30.24R
JAMESTOWN      CLEAR     59  50  72 E8        30.28S
WELLSVILLE     CLEAR     55  51  86 SE3       30.31S
ROCHESTER      CLEAR     55  53  93 CALM      30.27S
PENN YAN       CLEAR     55  53  93 SW3       30.28F
$$

             KEY
       WCI = WIND CHILL INDEX
       VSB = VISIBILITY
       HX  = HEAT INDEX
$$


USA.gov is the U.S. government's official web portal to all federal, state and local government web resources and services.